Date,TemperatureHighF,TemperatureAvgF,TemperatureLowF,DewpointHighF,DewpointAvgF,DewpointLowF,HumidityHigh,HumidityAvg,HumidityLow,PressureMaxIn,PressureMinIn,WindSpeedMaxMPH,WindSpeedAvgMPH,GustSpeedMaxMPH,PrecipitationSumIn
2014-1-1,65.5,25.2,18.0,20.9,17.4,10.9,83,72,17,27.42,26.84,13,4,13,0.00
2014-1-2,42.6,26.1,11.7,27.1,17.8,7.0,85,72,50,27.41,26.87,8,2,8,0.00
2014-1-3,64.4,36.9,14.5,36.1,22.2,10.3,86,61,21,27.21,26.65,15,3,15,0.00
2014-1-4,44.2,27.4,13.5,32.6,12.2,-7.0,85,55,24,27.27,26.79,21,8,21,0.00
2014-1-5,22.8,9.4,-8.3,5.6,-3.4,-23.0,70,56,34,27.58,27.04,21,6,21,0.00
2014-1-6,22.3,5.1,-12.1,15.1,-12.0,-25.2,83,46,26,27.55,27.20,9,2,9,0.00
2014-1-7,51.4,30.4,11.7,22.4,13.1,1.7,68,50,26,27.20,27.06,7,2,7,0.00
2014-1-8,36.1,27.3,18.5,22.0,17.9,12.2,86,68,54,27.32,27.16,14,4,14,0.00
2014-1-9,51.1,23.2,10.0,28.2,16.1,4.0,87,75,53,27.31,26.85,17,5,17,0.00
2014-1-10,41.5,30.6,20.7,36.8,25.0,15.5,96,80,56,26.89,26.88,15,4,15,0.00
2014-1-11,55.4,40.4,23.0,27.0,22.7,17.1,78,52,25,27.06,26.75,20,5,20,0.00
2014-1-12,52.3,40.9,31.3,32.8,23.5,11.2,74,53,24,27.23,26.65,18,4,18,0.00
2014-1-13,54.9,39.4,21.6,25.2,20.1,13.6,75,50,22,27.23,26.92,18,5,18,0.00
2014-1-14,46.4,34.3,20.8,33.8,22.5,12.3,86,63,36,29.64,26.99,29,8,29,0.00
2014-1-15,59.4,38.8,20.1,28.9,21.3,14.4,85,55,23,27.37,26.99,21,4,21,0.00
2014-1-16,45.9,37.8,21.2,25.7,13.8,2.8,62,39,20,27.34,27.05,37,13,37,0.00
2014-1-17,49.6,30.7,14.9,21.7,13.9,2.9,73,52,30,27.34,26.89,42,2,42,0.07
2014-1-18,50.4,39.8,21.7,26.4,16.3,5.9,54,40,22,27.24,27.01,31,9,31,0.00
2014-1-19,66.7,38.6,20.7,25.2,14.1,6.1,68,42,15,27.19,26.97,15,3,15,0.00
2014-1-20,50.2,35.2,19.8,23.2,14.6,-22.6,65,45,22,27.56,27.02,33,7,33,0.00
2014-1-21,60.4,31.1,7.9,23.3,9.7,-1.1,76,46,19,27.51,27.07,23,5,23,0.02
2014-1-22,39.0,25.9,11.7,25.6,12.0,-13.4,75,56,31,27.57,27.21,20,5,20,0.00
2014-1-23,25.9,12.2,-1.7,0.3,-11.6,-23.3,62,35,21,27.80,27.46,10,4,10,0.00
2014-1-24,59.0,35.6,3.9,29.8,11.5,-8.0,71,40,21,27.45,27.07,24,6,24,0.00
2014-1-25,59.7,48.7,40.5,31.9,25.8,-10.0,54,41,28,27.69,26.88,16,6,16,0.00
2014-1-26,57.4,36.9,16.5,29.6,16.8,-14.1,70,46,23,27.37,26.85,44,10,44,0.00
2014-1-27,37.2,15.6,5.0,-6.8,-10.3,-14.5,43,31,23,27.44,26.94,13,3,13,0.00
2014-1-28,33.4,13.6,2.1,-1.1,-9.8,-20.8,62,36,20,27.44,27.21,20,3,20,0.00
2014-1-29,59.2,29.0,1.9,17.5,3.2,-14.7,62,37,19,27.21,26.58,20,5,20,0.00
2014-1-30,50.5,36.9,23.9,37.7,22.9,5.8,84,59,22,27.21,26.54,23,6,23,0.00
2014-1-31,26.4,21.6,15.6,19.6,14.9,8.4,86,75,63,27.12,26.96,10,2,10,0.00
2014-2-1,36.0,14.8,2.8,18.1,5.5,-4.6,86,67,48,27.33,26.96,18,5,18,0.00
2014-2-2,31.5,11.5,-4.2,18.2,1.0,-13.4,71,63,51,27.33,27.19,8,2,8,0.00
2014-2-3,49.3,14.0,-1.3,15.2,5.2,-9.9,77,68,55,27.27,27.08,18,2,18,0.00
2014-2-4,21.7,14.2,1.9,15.8,6.1,-9.1,79,70,59,27.51,27.15,27,8,27,0.00
2014-2-5,7.7,-1.1,-12.1,-9.1,-15.0,-24.3,60,51,43,27.67,27.51,13,4,13,0.00
2014-2-6,12.2,-0.4,-13.7,-4.1,-13.7,-25.6,64,53,42,27.75,27.27,11,3,11,0.00
2014-2-7,21.0,9.5,-0.9,5.9,-1.6,-10.8,67,61,48,27.27,27.01,13,5,13,0.00
2014-2-8,44.2,20.2,5.0,23.7,9.4,-3.9,73,63,44,27.25,26.99,8,2,8,0.00
2014-2-9,50.7,16.5,11.3,15.6,6.1,2.5,76,63,48,27.41,26.92,28,4,27,0.00
2014-2-10,23.0,13.3,2.1,8.9,3.0,-6.8,70,63,53,27.40,27.29,13,4,13,0.00
2014-2-11,36.9,24.1,14.0,25.8,15.4,6.0,80,69,56,27.34,27.05,8,3,8,0.00
2014-2-12,44.2,31.4,20.1,29.1,23.0,14.1,86,71,53,27.24,26.90,13,4,13,0.00
2014-2-13,54.9,38.7,23.0,38.6,28.9,10.9,87,69,51,27.17,26.60,15,3,15,0.00
2014-2-14,49.3,41.5,36.9,34.0,27.8,17.7,85,60,35,27.14,26.88,21,7,21,0.00
2014-2-15,52.3,42.0,16.0,37.6,29.6,7.0,77,62,30,27.21,26.85,27,7,27,0.00
2014-2-16,61.9,42.3,27.1,39.2,30.8,19.3,83,65,42,27.19,26.79,24,6,24,0.00
2014-2-17,62.1,47.1,32.4,35.9,23.0,12.3,82,44,18,27.17,26.90,23,7,23,0.00
2014-2-18,62.2,41.6,16.7,29.3,19.9,5.9,75,46,18,27.22,26.83,28,6,28,0.00
2014-2-19,60.4,41.4,24.6,33.9,21.3,-11.4,80,49,22,27.61,26.63,24,6,24,0.00
2014-2-20,41.9,33.7,22.6,33.9,22.6,-21.9,99,66,38,27.55,26.67,33,11,33,0.00
2014-2-21,51.3,36.0,21.7,24.4,17.7,-3.9,71,50,24,27.20,26.92,21,5,21,0.00
2014-2-22,50.4,34.6,23.9,31.4,24.3,18.7,94,69,34,27.21,27.01,8,3,8,0.00
2014-2-23,29.5,23.9,19.6,23.8,18.4,4.0,89,79,64,27.35,27.21,5,1,5,0.00
2014-2-24,41.4,25.4,12.2,29.2,17.7,1.3,91,73,58,27.47,27.07,24,8,24,0.00
2014-2-25,18.1,10.7,1.4,8.5,0.4,-7.3,77,63,47,27.54,27.34,11,4,11,0.00
2014-2-26,33.3,12.3,-6.9,16.8,0.9,-16.2,70,60,45,27.51,27.09,10,3,10,0.00
2014-2-27,11.7,3.8,2.8,5.6,-4.3,-5.3,76,68,66,27.12,27.06,7,1,7,0.00
2014-2-28,2.8,2.8,2.8,-5.3,-5.3,-5.3,68,68,68,27.17,27.06,0,0,0,0.00
2014-3-1,2.8,2.8,2.8,-5.3,-5.3,-5.3,68,68,68,27.17,27.17,0,0,0,0.00
2014-3-2,25.0,25.0,25.0,17.9,17.9,17.9,74,74,74,27.17,27.17,0,0,0,0.00
2014-3-22,93.9,39.4,16.9,82.7,28.2,11.8,84,70,35,27.57,26.99,10,3,10,0.00
2014-3-23,49.6,26.2,6.4,33.1,18.1,-10.2,84,72,50,27.57,26.97,20,6,20,0.02
2014-3-24,45.3,36.5,27.5,28.0,24.4,19.1,88,63,36,27.39,27.17,18,6,18,0.00
2014-3-25,53.2,38.1,26.2,27.0,20.5,8.1,69,51,32,27.47,27.03,20,6,20,0.01
2014-3-26,79.0,50.3,26.2,45.1,31.1,18.6,82,55,16,27.34,26.47,23,7,23,0.02
2014-3-27,51.3,42.9,33.4,45.2,35.2,26.8,98,76,46,27.02,26.42,26,8,26,0.01
2014-3-28,61.5,44.7,31.6,41.0,27.0,15.3,92,57,21,27.31,26.99,23,6,23,0.05
2014-3-29,73.4,47.5,21.6,36.2,22.2,10.1,87,47,13,27.34,26.96,21,6,21,0.02
2014-3-30,74.5,54.2,33.3,37.8,31.1,23.4,72,45,18,27.11,26.57,10,3,10,0.02
2014-3-31,59.0,45.4,31.3,37.3,29.1,21.6,71,53,35,27.15,26.53,36,14,36,0.06
2014-4-1,54.3,39.4,25.0,27.3,21.7,16.1,74,52,27,27.20,27.00,17,5,17,0.08
2014-4-2,52.0,39.7,33.3,34.0,27.1,20.7,86,61,47,27.17,26.87,13,4,13,0.00
2014-4-3,44.2,38.2,29.8,37.8,31.6,19.2,96,78,54,27.17,26.89,22,11,100,0.11
2014-4-4,61.2,40.5,21.9,33.7,25.0,18.1,86,60,22,27.24,26.98,15,4,15,0.09
2014-4-5,70.5,50.1,31.1,39.3,29.6,25.0,79,51,19,27.12,26.99,17,6,17,0.00
2014-4-6,69.3,53.0,38.5,42.1,36.7,25.8,95,60,22,27.55,26.86,16,5,16,0.17
2014-4-7,57.7,45.4,34.3,41.4,33.6,25.8,92,66,31,27.23,26.99,34,9,34,0.00
2014-4-8,69.3,47.2,25.7,34.2,26.3,13.4,79,50,20,27.44,27.13,14,4,14,0.25
2014-4-9,87.1,62.5,37.8,37.3,30.7,23.0,74,38,12,27.15,26.71,18,4,18,0.09
2014-4-10,72.5,59.6,47.7,38.1,34.3,27.7,65,41,21,27.15,26.84,21,6,21,0.00
2014-4-11,84.4,60.2,39.6,43.0,36.0,29.3,71,45,18,27.14,26.86,18,5,18,0.00
2014-4-12,82.6,64.8,45.3,44.2,36.7,28.8,77,40,15,27.19,26.72,18,5,18,0.07
2014-4-13,60.3,38.3,30.0,36.9,31.1,4.3,99,78,39,27.25,26.78,30,11,30,0.43
2014-4-14,48.6,35.3,24.8,29.0,21.9,15.4,74,59,33,27.38,27.24,21,7,21,0.08
2014-4-15,71.2,47.3,22.8,34.5,24.5,18.8,87,50,15,27.27,26.78,14,4,14,0.76
2014-4-16,58.5,49.1,35.4,39.2,34.4,28.2,82,58,41,27.26,26.71,30,10,30,0.00
2014-4-17,58.1,42.4,31.8,39.6,33.0,27.4,85,71,48,27.39,27.20,18,5,18,0.00
2014-4-18,76.8,56.5,32.7,47.0,41.3,31.2,99,63,31,27.24,26.99,29,10,29,0.35
2014-4-19,73.6,60.9,48.0,51.3,47.9,44.1,88,64,43,27.13,26.97,18,5,18,0.00
2014-4-20,79.2,62.4,44.4,54.7,49.4,43.5,97,67,37,27.12,27.00,8,2,8,0.00
2014-4-21,75.4,62.3,50.2,51.6,31.5,18.2,92,39,13,27.31,26.99,20,6,20,0.18
2014-4-22,80.1,61.6,38.8,50.8,36.4,26.9,74,44,21,27.27,26.85,27,10,27,0.18
2014-4-23,80.4,67.5,56.8,50.8,41.1,18.4,69,42,15,27.14,26.62,26,11,26,0.53
2014-4-24,72.5,59.6,45.0,39.9,26.7,16.2,68,34,12,27.03,26.88,18,7,18,0.18
2014-4-25,82.8,62.4,41.2,37.0,27.2,20.7,54,31,12,26.86,26.82,9,3,9,0.18
2014-4-26,90.3,67.8,46.8,48.5,36.4,19.8,79,40,11,26.81,26.40,21,6,21,0.00
2014-4-27,75.9,60.6,42.3,44.5,31.0,18.1,92,39,13,26.57,26.31,31,8,31,0.00
2014-4-28,48.7,43.6,39.2,41.3,39.3,37.3,97,85,68,26.89,26.56,35,16,35,0.21
2014-4-29,45.3,40.5,36.3,37.8,34.4,31.1,97,79,61,27.25,26.88,36,19,36,0.04
2014-4-30,54.1,44.0,34.7,31.4,27.2,19.8,82,55,27,27.28,27.20,29,13,29,0.00
2014-5-1,60.8,50.2,39.6,33.9,27.1,20.2,75,44,23,27.26,27.14,28,9,28,0.00
2014-5-2,80.6,56.7,30.4,52.8,31.6,20.9,83,47,15,27.18,26.93,20,4,20,0.00
2014-5-3,84.4,63.7,42.4,50.1,45.1,38.9,90,56,25,27.08,26.92,14,4,14,0.00
2014-5-4,75.0,60.2,47.3,49.1,45.5,43.1,87,61,35,27.09,26.88,11,3,11,0.00
2014-5-5,80.1,63.0,46.9,51.1,46.2,21.0,85,58,31,27.31,26.87,12,3,12,0.00
2014-5-6,82.2,64.6,46.4,54.3,49.5,42.2,94,62,34,26.87,26.66,12,3,12,0.00
2014-5-7,83.7,66.3,54.7,59.4,53.8,22.6,86,67,40,26.82,26.64,22,6,22,0.00
2014-5-8,70.0,49.9,40.8,64.9,42.4,16.8,94,76,59,27.07,26.73,22,10,22,0.00
2014-5-9,95.0,56.9,31.8,50.2,36.0,-20.2,95,54,1,31.05,26.85,12,3,12,0.00
2014-5-10,83.1,65.1,43.3,47.5,35.8,24.9,81,40,13,26.94,26.64,20,5,20,0.00
2014-5-11,59.7,51.5,42.8,48.4,45.3,10.2,99,81,61,27.08,26.36,25,11,25,0.07
2014-5-12,50.2,41.1,35.1,41.8,35.7,29.6,99,83,48,27.37,26.50,35,13,35,0.22
2014-5-13,54.9,47.6,31.5,35.7,31.5,27.9,87,57,42,27.45,27.36,18,5,18,0.00
2014-5-14,54.9,54.9,54.9,32.2,32.2,32.2,42,42,42,27.45,27.45,0,0,0,0.00
2014-5-15,54.9,54.9,54.9,32.2,32.2,32.2,42,42,42,27.45,27.45,0,0,0,0.00
2014-5-16,54.9,54.9,54.9,32.2,32.2,32.2,42,42,42,27.45,27.45,0,0,0,0.00
2014-5-17,54.9,54.9,54.9,32.2,32.2,32.2,42,42,42,27.45,27.45,0,0,0,0.00
2014-5-18,54.9,54.9,54.9,32.2,32.2,32.2,42,42,42,27.45,27.45,0,0,0,0.00
2014-5-19,89.1,81.5,54.9,58.6,55.2,32.2,67,42,27,27.45,26.76,25,7,25,0.00
2014-5-20,86.0,72.2,57.7,63.0,50.8,44.8,85,51,26,27.45,26.89,21,6,21,0.00
2014-5-21,84.7,71.6,55.4,58.6,50.2,44.8,89,50,28,27.28,26.76,13,4,13,0.18
2014-5-22,81.3,68.7,55.6,60.9,56.7,51.3,91,68,45,27.28,26.65,11,4,11,1.08
2014-5-23,68.7,63.4,59.5,65.6,61.8,50.9,99,95,81,27.26,26.92,13,3,13,1.89
2014-5-24,76.3,67.1,60.3,65.8,62.0,59.1,99,85,57,27.17,27.03,10,4,10,0.11
2014-5-25,77.0,67.7,61.0,65.6,61.8,56.3,99,83,53,27.10,26.99,17,3,17,0.01
2014-5-26,87.3,70.2,53.8,65.9,57.0,48.4,98,68,31,27.09,27.00,13,2,13,0.00
2014-5-27,92.1,74.4,55.9,63.8,57.3,51.6,95,61,29,27.25,27.04,34,2,34,0.00
2014-5-28,95.4,76.9,58.1,64.7,57.3,41.4,92,56,26,27.45,27.08,8,2,8,0.00
2014-5-29,94.3,76.9,57.6,65.0,56.4,46.6,90,54,22,27.13,27.02,10,3,10,0.00
2014-5-30,92.7,76.4,62.1,64.6,59.2,51.5,96,58,34,27.20,27.04,15,4,15,0.43
2014-5-31,84.9,72.5,62.6,70.2,64.9,22.4,97,79,50,27.20,26.97,12,2,12,0.18
2014-6-1,81.1,71.3,61.5,70.9,62.6,52.4,95,75,54,27.06,26.88,22,4,22,0.00
2014-6-2,82.0,69.4,55.6,60.5,56.4,51.7,96,67,41,27.17,27.04,9,3,9,0.00
2014-6-3,95.7,78.6,63.3,70.3,64.3,48.2,97,66,33,27.11,26.68,24,8,24,0.00
2014-6-4,75.4,67.3,61.3,62.7,60.2,34.4,93,79,62,27.18,26.85,16,5,16,0.00
2014-6-5,83.1,72.3,62.4,63.3,58.4,49.4,94,65,32,27.19,26.94,14,3,14,0.00
2014-6-6,89.1,71.1,57.9,76.8,58.8,52.2,99,69,35,27.11,26.92,32,6,32,0.50
2014-6-7,72.5,62.5,51.1,56.9,54.0,49.4,97,75,55,27.23,26.98,18,5,18,0.00
2014-6-8,70.9,61.4,54.5,62.1,57.3,53.4,99,87,67,27.24,26.94,17,4,17,0.60
2014-6-9,61.7,54.4,50.2,56.7,52.0,49.9,99,92,74,27.14,26.96,32,12,32,1.33
2014-6-10,77.5,63.5,45.9,63.7,55.2,44.9,99,77,51,27.13,26.93,12,3,12,0.00
2014-6-11,85.3,68.1,55.8,64.2,58.8,28.2,98,75,45,27.13,26.88,24,5,24,0.00
2014-6-12,73.0,63.6,50.7,55.6,49.1,45.7,89,62,40,27.28,27.09,13,4,13,0.00
2014-6-13,80.6,68.5,51.1,63.3,56.9,-15.3,95,69,5,30.24,26.81,30,9,30,0.00
2014-6-14,84.7,73.0,55.9,65.9,62.1,52.7,97,71,49,26.90,26.77,23,9,23,0.08
2014-6-15,79.3,65.6,52.2,56.9,53.2,49.1,96,68,37,27.04,26.78,13,4,13,0.11
2014-6-16,95.2,78.2,61.0,72.8,63.8,45.8,98,67,22,27.16,26.72,18,4,18,0.00
2014-6-17,94.8,78.0,61.7,70.9,61.3,48.1,95,62,24,27.17,26.72,9,2,9,0.00
2014-6-18,90.1,77.4,63.3,78.8,59.5,49.6,74,55,40,27.06,26.74,18,4,18,0.00
2014-6-19,82.2,72.2,57.2,59.3,53.5,47.3,87,56,31,27.16,26.97,40,5,40,0.04
2014-6-20,94.1,76.0,60.8,71.0,63.0,56.3,88,67,35,27.17,26.96,20,2,20,0.01
2014-6-21,88.3,76.3,64.2,69.6,64.2,54.4,99,68,44,27.17,26.92,22,4,22,0.45
2014-6-22,86.0,74.1,62.8,69.8,64.8,43.0,99,76,47,27.19,26.94,11,3,11,0.15
2014-6-23,81.7,70.8,60.8,64.4,61.4,58.0,98,75,47,27.19,27.01,23,4,23,0.15
2014-6-24,83.7,72.3,63.0,66.0,62.2,56.5,98,74,43,27.20,27.08,15,2,15,0.20
2014-6-25,86.4,73.5,59.9,70.0,63.3,55.7,97,74,46,27.18,26.89,13,3,13,0.44
2014-6-26,85.6,74.0,61.7,72.7,66.2,60.5,99,79,50,27.12,26.81,15,5,15,0.26
2014-6-27,82.6,68.3,59.7,73.2,64.6,57.1,99,89,66,26.95,26.68,21,3,21,0.90
2014-6-28,84.7,71.6,57.2,77.4,59.2,53.9,99,69,37,26.97,26.68,10,3,10,0.00
2014-6-29,91.8,78.9,65.8,74.9,67.9,52.9,97,72,41,27.03,26.91,12,3,12,0.00
2014-6-30,84.2,77.7,65.5,75.9,63.7,50.5,99,66,35,27.08,26.83,21,6,21,0.00
2014-7-1,86.4,69.9,58.1,54.4,52.3,49.0,84,56,35,27.28,26.82,18,6,18,0.00
2014-7-2,80.1,69.2,56.8,59.1,54.6,49.6,92,63,38,27.36,27.19,8,2,8,0.00
2014-7-3,85.5,72.2,55.8,66.6,60.9,52.7,92,70,49,27.30,27.17,18,5,18,0.00
2014-7-4,90.0,76.6,63.9,72.0,65.8,59.6,95,71,50,27.24,27.08,17,5,17,0.34
2014-7-5,95.4,79.6,64.4,72.8,66.1,59.1,90,66,38,27.18,26.94,10,2,10,0.02
2014-7-6,97.7,81.3,64.8,72.7,66.7,60.7,96,66,30,27.12,27.03,10,2,10,0.00
2014-7-7,92.1,78.5,65.3,70.6,65.8,60.2,95,67,46,27.17,26.98,13,3,13,0.00
2014-7-8,84.4,75.1,63.9,68.4,58.3,49.9,94,60,33,27.28,27.12,14,3,14,0.00
2014-7-9,91.4,76.8,59.9,67.5,61.9,55.7,88,63,42,27.22,26.99,20,5,20,0.00
2014-7-10,93.0,78.7,65.5,71.1,66.4,63.2,95,69,42,27.17,26.82,20,7,20,0.00
2014-7-11,96.6,83.2,70.2,73.7,69.4,61.5,95,67,34,27.15,26.82,13,3,13,0.00
2014-7-12,87.1,77.8,71.2,72.1,68.7,56.7,92,75,51,27.24,26.91,17,5,17,0.00
2014-7-13,93.6,76.5,63.3,71.3,65.0,58.9,97,71,37,27.30,26.97,8,2,8,0.00
2014-7-14,83.5,71.7,60.3,66.7,56.8,44.2,96,64,32,27.37,26.83,17,4,17,0.00
2014-7-15,78.6,65.2,50.4,56.4,51.8,46.3,89,64,43,27.38,27.16,9,2,9,0.00
2014-7-16,66.7,61.5,56.5,60.7,56.2,42.2,99,84,53,27.35,27.14,13,3,13,0.57
2014-7-17,73.8,64.5,58.1,63.9,59.7,54.8,99,85,65,27.27,27.14,10,3,10,0.04
2014-7-18,81.7,69.1,58.5,66.2,61.6,57.0,96,79,56,27.20,27.00,15,5,15,0.00
2014-7-19,85.8,72.8,62.2,72.3,66.8,61.6,99,83,60,27.12,26.98,14,4,14,0.00
2014-7-20,101.5,82.2,66.2,74.4,64.6,44.5,99,64,15,26.98,26.89,8,2,8,0.00
2014-7-21,98.8,82.0,67.1,74.6,65.5,57.4,86,61,31,27.11,26.95,13,2,13,0.00
2014-7-22,95.5,82.5,67.6,69.0,65.3,62.1,86,59,38,27.32,27.10,12,3,12,0.00
2014-7-23,91.8,75.7,65.5,73.0,66.7,57.7,98,76,41,27.50,27.18,20,3,20,0.26
2014-7-24,102.9,82.4,63.5,76.3,62.4,44.0,98,60,14,27.25,26.90,18,4,18,0.00
2014-7-25,92.7,80.2,66.4,72.3,64.5,56.9,85,61,41,27.08,26.92,14,4,14,0.00
2014-7-26,95.2,81.0,68.4,71.5,66.1,60.8,91,64,34,27.19,26.99,17,4,17,0.00
2014-7-27,88.5,77.3,65.7,64.7,56.9,47.6,89,54,25,27.36,27.18,13,3,13,0.00
2014-7-28,89.2,74.8,58.3,64.3,59.8,53.6,88,62,39,27.42,27.25,13,3,13,0.00
2014-7-29,124.2,74.1,59.2,65.9,61.0,21.3,93,66,3,27.35,25.07,42,3,42,0.01
2014-7-30,82.8,72.1,63.7,76.1,60.9,53.1,95,70,42,27.31,27.15,8,2,8,0.00
2014-7-31,91.8,74.7,57.9,65.4,56.8,48.9,94,61,25,27.30,27.15,10,2,10,0.00
2014-8-1,96.3,76.9,55.8,64.5,56.6,39.3,92,55,22,27.25,27.18,7,2,7,0.00
2014-8-2,97.9,78.0,57.9,64.6,57.4,50.3,86,55,23,27.29,27.01,15,2,15,0.07
2014-8-3,98.6,79.1,59.7,66.0,59.2,53.0,91,56,24,27.25,26.94,7,2,7,0.00
2014-8-4,96.8,80.7,60.8,66.8,58.7,51.2,85,52,24,27.19,27.07,10,2,10,0.00
2014-8-5,95.9,80.1,68.5,71.4,61.6,53.0,86,56,33,27.24,27.03,12,2,12,0.02
2014-8-6,90.9,79.5,69.4,68.7,64.7,57.5,86,63,37,27.36,27.02,13,3,13,0.09
2014-8-7,88.9,74.3,63.7,74.2,66.8,28.2,99,80,23,27.19,26.91,15,2,15,0.52
2014-8-8,89.1,75.6,62.1,73.0,65.0,61.1,98,73,44,27.14,27.03,15,2,15,0.24
2014-8-9,89.8,75.7,64.0,73.5,67.0,59.9,99,77,52,27.20,27.02,18,3,18,0.00
2014-8-10,85.8,72.6,61.3,67.0,62.7,60.5,97,74,45,27.33,27.11,15,4,15,0.00
2014-8-11,86.0,72.9,59.0,68.9,62.1,47.6,99,72,45,27.37,27.26,8,2,8,0.00
2014-8-12,88.7,74.7,60.8,63.2,60.3,49.2,92,64,41,27.33,27.17,9,2,9,0.00
2014-8-13,92.7,76.9,59.5,67.1,61.8,56.6,91,64,38,27.31,27.09,13,4,13,0.00
2014-8-14,95.7,81.1,64.4,69.5,64.4,54.7,93,61,35,27.27,26.94,18,4,18,0.00
2014-8-15,91.8,80.7,70.5,68.0,64.3,58.6,83,60,35,27.05,26.98,17,4,17,0.00
2014-8-16,97.2,81.1,63.7,70.4,63.6,39.1,93,60,33,27.19,27.03,8,2,8,0.00
2014-8-17,101.5,82.3,64.0,70.0,62.1,54.8,89,56,24,27.13,26.96,11,3,11,0.00
2014-8-18,93.7,77.0,60.8,64.4,59.8,47.5,88,60,31,27.10,26.95,15,3,15,0.00
2014-8-19,93.7,78.1,60.3,86.0,61.0,38.8,86,59,36,27.25,26.85,10,3,10,0.04
2014-8-20,95.7,80.2,69.1,71.4,64.9,57.5,89,64,31,26.92,26.84,14,2,14,0.01
2014-8-21,93.9,80.4,66.7,66.0,61.4,54.3,87,57,28,27.11,26.91,13,3,13,0.00
2014-8-22,89.6,76.2,66.6,69.2,63.9,45.9,99,69,34,27.13,27.02,44,4,44,0.43
2014-8-23,85.1,73.9,64.9,71.4,67.0,53.1,99,81,53,27.12,26.88,20,2,20,0.12
2014-8-24,83.8,72.2,61.0,63.0,57.0,46.5,95,64,33,27.08,27.01,15,2,15,0.01
2014-8-25,81.9,70.6,61.9,66.0,62.1,46.0,99,76,51,27.34,27.04,14,3,14,0.48
2014-8-26,80.6,69.8,60.4,68.8,64.5,59.0,99,85,62,27.34,27.17,10,2,10,0.15
2014-8-27,82.2,72.0,65.1,73.3,67.9,64.8,99,88,64,27.25,27.08,13,3,13,0.19
2014-8-28,82.8,69.3,60.4,69.3,63.0,57.8,99,82,53,27.15,27.00,15,3,15,0.67
2014-8-29,86.5,71.0,55.8,62.5,57.2,51.0,98,68,30,27.05,26.99,16,4,16,0.00
2014-8-30,88.7,73.8,58.1,66.8,59.9,6.8,98,67,5,31.75,26.91,14,3,14,0.00
2014-8-31,86.2,68.7,63.9,65.9,61.8,56.1,88,79,58,26.96,26.88,14,1,14,0.00
2014-9-1,78.8,66.2,54.3,59.3,55.2,52.0,96,71,41,27.12,26.87,10,2,10,0.00
2014-9-2,87.1,72.4,52.7,67.3,59.6,51.8,97,68,37,27.18,27.00,15,4,15,0.00
2014-9-3,93.7,78.3,63.1,74.4,68.3,47.0,99,74,46,27.01,26.79,11,2,11,0.00
2014-9-4,89.8,74.1,64.9,61.8,51.5,43.1,84,47,29,27.29,26.78,26,8,26,0.00
2014-9-5,77.0,59.4,52.9,56.1,54.0,45.2,98,83,61,27.42,27.08,12,2,12,0.22
2014-9-6,77.4,63.4,50.2,61.0,54.5,49.8,99,76,47,27.42,26.98,13,2,9,0.01
2014-9-7,83.1,67.7,50.9,61.1,56.2,49.5,96,70,44,27.32,27.03,17,4,17,0.00
2014-9-8,92.7,74.0,57.7,63.1,56.8,47.1,96,62,22,27.19,26.94,13,2,13,0.00
2014-9-9,86.5,69.5,62.8,70.3,64.4,56.2,97,84,63,26.96,26.83,17,2,17,0.09
2014-9-10,66.7,56.6,52.3,65.0,51.9,47.9,96,85,71,27.24,27.01,17,7,17,0.06
2014-9-11,54.3,47.1,32.7,50.2,46.2,27.2,99,97,80,28.74,27.08,14,4,14,0.13
2014-9-12,53.6,42.6,36.5,40.9,37.7,27.9,99,84,55,27.59,27.02,15,5,15,0.12
2014-9-13,61.9,47.8,34.5,49.7,42.0,29.0,99,82,62,27.47,27.22,15,4,15,0.00
2014-9-14,75.0,57.4,40.3,61.6,51.8,40.0,99,84,60,27.27,27.04,15,3,15,0.00
2014-9-15,68.4,59.1,50.4,58.4,50.1,46.0,97,75,46,27.40,26.89,17,4,17,0.00
2014-9-16,84.7,62.9,46.2,81.5,54.6,36.0,97,77,47,27.34,27.01,13,3,13,0.00
2014-9-17,85.8,68.1,52.3,66.0,59.3,51.6,99,77,46,27.08,26.97,9,2,9,0.00
2014-9-18,72.7,65.5,60.1,67.7,63.8,56.9,99,94,82,27.09,27.00,8,2,8,0.01
2014-9-19,93.4,72.9,53.2,68.8,60.0,52.7,99,70,34,27.01,26.95,12,3,12,0.01
2014-9-20,85.3,74.8,62.8,64.2,56.4,50.0,87,56,32,27.35,26.98,13,4,13,0.00
2014-9-21,78.3,64.0,48.9,50.0,46.0,39.5,90,56,26,27.44,27.13,7,2,7,0.00
2014-9-22,74.7,63.5,52.9,60.7,49.5,45.2,82,62,40,27.39,27.05,18,4,18,0.02
2014-9-23,82.8,69.4,55.6,79.8,60.1,54.6,99,75,49,27.14,26.90,8,2,8,0.00
2014-9-24,88.9,69.6,52.5,75.7,56.1,50.8,96,68,30,27.24,26.86,9,2,9,0.00
2014-9-25,88.7,69.8,53.2,66.9,57.2,49.3,96,69,34,27.26,27.16,11,2,11,0.00
2014-9-26,86.7,70.6,56.1,64.5,56.3,50.2,95,66,33,27.18,27.07,15,4,15,0.00
2014-9-27,85.3,69.2,54.3,60.1,54.5,48.5,88,63,37,27.49,27.01,20,4,20,0.19
2014-9-28,85.3,69.6,55.2,63.9,56.4,49.0,96,67,37,27.22,27.07,21,4,21,0.09
2014-9-29,83.3,69.4,55.2,72.7,55.9,52.8,95,66,40,27.38,26.88,22,6,22,0.31
2014-9-30,79.2,64.3,50.2,58.9,51.8,23.5,96,69,31,27.25,26.83,15,3,15,0.28
2014-10-1,76.3,61.2,47.5,55.6,49.2,40.1,96,69,34,27.01,26.87,25,3,25,0.01
2014-10-2,67.1,55.7,46.4,51.7,44.9,32.6,99,73,28,27.18,26.99,20,6,20,0.20
2014-10-3,57.0,47.1,36.5,45.5,29.3,15.5,93,56,21,27.43,27.18,30,9,30,0.01
2014-10-4,72.1,50.9,30.6,42.3,31.9,21.6,92,57,16,27.31,27.00,15,3,15,0.00
2014-10-5,71.6,54.8,42.4,52.1,42.6,20.7,90,67,30,27.35,26.96,26,4,26,0.01
2014-10-6,78.1,59.2,42.1,51.8,43.2,33.4,97,64,23,27.37,26.86,15,3,15,0.00
2014-10-7,78.6,62.1,47.3,51.1,46.8,43.3,88,62,34,27.16,26.94,12,2,12,0.00
2014-10-8,72.7,57.6,46.6,48.4,43.4,39.2,83,62,37,27.22,27.04,11,2,11,0.00
2014-10-9,68.4,54.7,43.2,54.0,47.4,42.1,97,78,55,27.17,27.08,8,2,8,0.00
2014-10-10,58.3,50.2,39.7,39.3,35.1,32.4,84,57,40,27.38,27.29,8,2,8,0.00
2014-10-11,68.0,49.8,32.5,50.8,41.1,28.5,99,74,40,27.30,26.98,18,4,18,0.00
2014-10-12,65.1,51.7,44.8,56.9,46.5,26.4,99,84,55,27.08,26.94,24,6,24,0.01
2014-10-13,63.5,52.3,39.2,53.4,34.5,24.7,91,56,23,27.18,27.03,34,11,34,0.00
2014-10-14,69.8,49.1,30.9,40.4,31.6,26.9,90,58,20,27.23,27.14,8,2,8,0.00
2014-10-15,84.4,55.2,31.6,46.7,35.1,26.4,87,55,16,27.17,26.88,17,3,17,0.00
2014-10-16,74.8,56.9,40.3,47.0,34.2,17.4,91,51,12,27.13,26.85,16,4,16,0.00
2014-10-17,68.2,52.7,39.4,43.8,36.7,20.1,83,57,33,27.35,27.12,13,2,13,0.02
2014-10-18,68.9,47.1,32.0,44.8,35.5,26.7,88,67,36,27.35,27.17,15,3,15,0.02
2014-10-20,131.7,68.4,52.2,87.9,42.2,38.5,65,42,5,31.75,27.13,12,4,12,0.05
2014-10-21,81.0,61.4,41.9,59.5,48.5,36.1,90,65,38,29.49,26.98,20,5,20,0.00
2014-10-22,73.8,62.1,48.4,55.7,50.2,41.0,82,66,42,27.18,27.00,11,3,11,0.01
2014-10-23,80.6,56.9,36.9,61.2,43.8,32.5,94,67,26,27.23,27.08,14,3,14,0.01
2014-10-24,86.2,61.8,45.0,51.4,41.5,29.2,92,57,14,27.26,27.09,13,2,13,0.02
2014-10-25,81.9,59.6,39.7,52.3,41.2,30.7,80,55,22,27.27,27.02,8,2,8,0.02
2014-10-26,85.8,61.1,41.2,53.5,41.5,30.8,99,59,16,27.02,26.77,21,4,21,0.00
2014-10-27,64.0,54.4,36.1,43.3,35.3,23.6,78,50,31,27.17,26.76,24,7,24,0.00
2014-10-28,61.2,41.8,25.9,34.2,23.4,18.6,83,53,23,27.30,27.17,13,3,13,0.00
2014-10-29,73.9,46.1,23.5,33.9,22.5,14.0,75,45,13,27.30,27.06,10,2,10,0.00
2014-10-30,73.2,51.1,33.3,37.8,29.4,23.2,84,46,24,27.51,26.88,21,6,21,0.00
2014-10-31,50.0,37.5,26.2,32.0,23.5,13.0,88,60,28,27.60,27.33,13,4,13,0.00
2014-11-1,61.2,42.0,25.5,43.2,24.3,12.2,69,50,35,27.33,26.97,18,7,18,0.00
2014-11-2,73.8,53.0,35.6,47.3,39.6,29.6,87,63,36,27.18,26.84,8,2,8,0.00
2014-11-3,62.4,46.3,30.9,48.2,39.2,28.6,92,77,56,27.28,26.83,21,6,21,0.00
2014-11-4,62.6,40.7,22.8,45.9,27.6,18.2,96,65,24,27.36,27.06,8,2,8,0.00
2014-11-5,67.1,49.0,33.1,33.9,28.6,22.4,76,49,24,27.44,27.01,21,6,21,0.00
2014-11-6,65.3,44.8,26.8,36.5,29.5,21.6,87,59,29,27.53,27.17,13,3,13,0.00
2014-11-7,84.9,52.4,31.6,65.3,32.7,25.4,81,52,18,27.30,26.99,25,6,25,0.00
2014-11-8,66.2,48.3,32.0,43.5,35.0,29.4,94,64,32,27.40,27.04,11,3,11,0.00
2014-11-9,77.0,51.5,32.7,36.6,28.4,21.5,83,48,15,27.05,26.59,13,3,13,0.00
2014-11-10,54.0,36.4,17.1,37.9,20.4,3.9,78,54,33,27.29,26.50,33,13,33,0.00
2014-11-11,26.1,15.9,8.2,18.6,1.0,-15.6,73,52,33,27.57,27.22,20,9,20,0.00
2014-11-12,55.9,11.1,4.1,39.5,-9.1,-15.8,66,41,21,27.66,27.07,20,8,20,0.00
2014-11-13,25.5,11.1,-4.5,2.5,-9.6,-16.0,62,41,21,27.67,27.38,7,2,7,0.00
2014-11-14,36.0,24.3,14.5,28.1,4.6,-5.3,73,43,33,27.59,27.09,16,8,16,0.00
2014-11-15,29.5,20.0,11.3,21.5,8.4,-9.2,77,61,50,27.37,27.02,21,7,21,0.00
2014-11-16,73.0,18.9,2.3,53.8,-0.2,-9.8,65,46,20,27.36,25.80,26,6,26,0.00
2014-11-17,26.6,13.1,1.4,10.1,-1.8,-11.1,67,52,34,27.37,26.87,23,5,23,0.00
2014-11-18,54.3,27.2,-1.8,19.3,3.3,-14.1,66,40,19,27.32,27.04,18,2,18,0.00
2014-11-19,48.6,34.3,18.0,27.1,16.8,4.5,65,49,35,27.25,27.10,10,3,10,0.00
2014-11-20,47.3,26.2,10.2,26.2,13.2,1.1,75,59,40,27.51,27.11,10,2,10,0.00
2014-11-21,60.8,34.6,16.0,36.6,22.3,2.3,78,62,38,27.29,27.00,14,3,14,0.00
2014-11-22,71.6,40.7,17.1,33.0,17.0,-3.6,89,48,13,27.39,26.62,15,3,15,0.00
2014-11-23,54.5,43.1,28.8,32.9,19.9,7.3,62,41,21,26.98,26.62,27,11,27,0.00
2014-11-24,46.9,36.2,25.9,31.9,21.6,9.4,85,57,35,27.27,26.86,20,6,20,0.00
2014-11-25,50.7,35.4,15.1,33.9,20.7,7.4,81,58,24,27.42,26.94,18,4,18,0.00
2014-11-26,41.0,35.0,15.4,34.5,24.7,-9.9,88,66,31,27.64,27.12,18,6,18,0.00
2014-11-27,56.1,35.1,20.5,30.8,23.5,7.6,85,65,36,27.65,27.08,10,2,10,0.00
2014-11-28,78.3,44.6,24.6,34.4,20.5,-1.7,83,47,12,27.36,26.79,17,2,17,0.00
2014-11-29,77.0,46.7,29.1,27.2,19.3,12.8,62,38,13,26.79,26.66,15,2,15,0.00
2014-11-30,35.2,20.0,12.7,19.3,2.1,-7.4,77,48,28,27.59,26.79,21,9,21,0.00
2014-12-1,31.5,21.3,13.5,-1.3,-6.4,-12.3,43,29,21,27.64,27.28,17,5,17,0.00
2014-12-2,68.5,34.9,16.2,24.2,8.4,-9.3,51,35,15,27.27,26.99,18,4,18,0.00
2014-12-3,41.0,29.1,19.4,19.0,9.3,-11.2,65,45,24,27.41,27.11,15,4,15,0.00
2014-12-4,59.4,33.9,16.3,30.2,16.0,1.7,64,49,29,27.19,27.02,10,2,10,0.00
2014-12-5,59.0,37.6,24.3,34.5,23.5,13.0,79,58,34,27.48,27.05,15,4,15,0.00
2014-12-6,46.4,32.4,19.2,31.8,20.5,11.4,79,63,46,27.59,27.01,11,3,11,0.00
2014-12-7,63.7,38.2,19.6,47.8,24.4,13.5,83,61,28,27.40,27.21,20,3,20,0.00
2014-12-8,59.0,34.6,18.7,32.2,21.9,13.0,84,63,33,27.44,27.31,8,3,8,0.00
2014-12-9,43.5,26.1,13.5,29.4,16.5,4.9,82,67,54,27.45,27.24,10,2,10,0.00
2014-12-10,57.6,30.7,14.7,30.2,18.4,7.6,82,63,29,27.41,27.14,7,2,7,0.00
2014-12-11,47.1,33.2,24.6,35.8,28.4,21.1,96,84,62,27.24,27.14,8,3,8,0.00
2014-12-12,36.9,36.9,36.9,35.8,35.8,35.8,96,96,96,27.22,27.22,4,4,4,0.00
2014-12-13,36.9,36.9,36.9,35.8,35.8,35.8,96,96,96,27.22,27.22,4,4,4,0.00
2014-12-14,36.9,36.9,36.9,35.8,35.8,35.8,96,96,96,27.22,27.22,4,4,4,0.00
2014-12-15,36.9,36.9,36.9,35.8,35.8,35.8,96,96,96,27.22,27.22,0,0,0,0.00
2014-12-16,36.9,36.9,36.9,35.8,35.8,35.8,96,96,96,27.22,27.22,0,0,0,0.00
2014-12-17,36.9,36.9,36.9,35.8,35.8,35.8,96,96,96,27.22,27.22,0,0,0,0.00
2014-12-18,36.9,36.9,36.9,35.8,35.8,35.8,96,96,96,27.22,27.22,0,0,0,0.00